CW2433 Weather Reports


Display with metric or nautical units.
time (UTC)temp
F
wind
direction
speed
MPH
gust
MPH
rain 1hr
in
rain 24hr
in
rain mn
in
humidity
%
barometer
mb
20171123234011 57 163 3.0 6.0 0.00 0.00 0.00 47 1012.1
20171123233510 57 164 3.0 5.0 0.00 0.00 0.00 47 1012.1
20171123233013 58 158 3.0 6.0 0.00 0.00 0.00 46 1012.1
20171123232510 58 165 3.0 6.0 0.00 0.00 0.00 45 1012.1
20171123232011 58 157 3.0 5.0 0.00 0.00 0.00 44 1012.2
20171123231511 59 164 3.0 3.0 0.00 0.00 0.00 43 1012.1
20171123231012 59 165 2.0 3.0 0.00 0.00 0.00 43 1012.2
20171123230510 60 165 2.0 3.0 0.00 0.00 0.00 42 1012.2
20171123230011 60 165 1.0 3.0 0.00 0.00 0.00 42 1012.2
20171123225509 60 165 2.0 3.0 0.00 0.00 0.00 42 1012.4
20171123225010 61 165 2.0 3.0 0.00 0.00 0.00 42 1012.5
20171123224511 61 165 2.0 3.0 0.00 0.00 0.00 42 1012.5
20171123224010 61 165 2.0 3.0 0.00 0.00 0.00 42 1012.5
20171123223509 61 165 2.0 5.0 0.00 0.00 0.00 41 1012.5
20171123223012 62 172 2.0 6.0 0.00 0.00 0.00 41 1012.5
20171123222509 62 160 3.0 6.0 0.00 0.00 0.00 41 1012.5
20171123222010 62 161 3.0 5.0 0.00 0.00 0.00 42 1012.6
20171123221511 62 163 2.0 3.0 0.00 0.00 0.00 42 1012.7
20171123221010 62 163 2.0 3.0 0.00 0.00 0.00 41 1012.7
20171123220509 62 163 3.0 5.0 0.00 0.00 0.00 41 1012.7
20171123220011 62 165 3.0 6.0 0.00 0.00 0.00 41 1012.8
20171123215509 62 148 4.0 6.0 0.00 0.00 0.00 41 1012.7
20171123215010 62 154 3.0 5.0 0.00 0.00 0.00 41 1012.9
20171123214511 62 153 3.0 5.0 0.00 0.00 0.00 41 1012.9
20171123214010 62 155 2.0 5.0 0.00 0.00 0.00 41 1012.9
20171123213509 62 153 2.0 6.0 0.00 0.00 0.00 41 1012.9
20171123213012 62 146 3.0 6.0 0.00 0.00 0.00 41 1012.9
20171123212509 62 140 3.0 7.0 0.00 0.00 0.00 41 1012.9
20171123212010 62 198 2.0 7.0 0.00 0.00 0.00 41 1012.9
20171123211511 62 171 3.0 6.0 0.00 0.00 0.00 42 1013.0
20171123211011 61 176 2.0 6.0 0.00 0.00 0.00 41 1013.0
20171123210509 61 142 5.0 7.0 0.00 0.00 0.00 42 1013.1
20171123210011 61 167 3.0 7.0 0.00 0.00 0.00 42 1013.0
20171123205509 61 157 5.0 7.0 0.00 0.00 0.00 42 1013.3
20171123205010 61 175 2.0 7.0 0.00 0.00 0.00 42 1013.5
20171123204514 60 153 4.0 7.0 0.00 0.00 0.00 42 1013.5
20171123204010 60 162 3.0 6.0 0.00 0.00 0.00 42 1013.7
20171123203509 60 163 3.0 6.0 0.00 0.00 0.00 42 1013.9
20171123203012 60 178 2.0 5.0 0.00 0.00 0.00 42 1014.0
20171123202509 60 209 2.0 5.0 0.00 0.00 0.00 43 1014.1
20171123202010 60 161 2.0 5.0 0.00 0.00 0.00 42 1014.0
20171123201511 60 166 3.0 6.0 0.00 0.00 0.00 42 1014.0
20171123201011 60 165 2.0 7.0 0.00 0.00 0.00 43 1014.0
20171123200509 60 163 3.0 7.0 0.00 0.00 0.00 44 1014.1
20171123200015 60 218 2.0 3.0 0.00 0.00 0.00 44 1014.1
20171123195510 60 226 2.0 3.0 0.00 0.00 0.00 44 1014.3
20171123195010 60 193 1.0 5.0 0.00 0.00 0.00 44 1014.3
20171123194512 59 171 2.0 5.0 0.00 0.00 0.00 43 1014.6
20171123194011 59 159 2.0 7.0 0.00 0.00 0.00 44 1014.7
20171123193510 59 158 3.0 7.0 0.00 0.00 0.00 44 1014.8
20171123193013 59 158 3.0 7.0 0.00 0.00 0.00 45 1014.9
20171123192510 59 182 2.0 5.0 0.00 0.00 0.00 45 1015.1
20171123192011 59 167 3.0 5.0 0.00 0.00 0.00 45 1015.1
20171123191512 58 211 2.0 3.0 0.00 0.00 0.00 46 1015.2
20171123191011 58 202 2.0 5.0 0.00 0.00 0.00 45 1015.3
20171123190510 58 145 2.0 5.0 0.00 0.00 0.00 45 1015.6
20171123190011 58 171 2.0 3.0 0.00 0.00 0.00 45 1015.7
20171123185510 57 171 3.0 5.0 0.00 0.00 0.00 46 1015.9
20171123185011 57 172 3.0 5.0 0.00 0.00 0.00 47 1016.1
20171123184511 57 219 1.0 3.0 0.00 0.00 0.00 48 1016.2
20171123184011 56 182 1.0 3.0 0.00 0.00 0.00 48 1016.1
20171123183510 56 166 0.0 3.0 0.00 0.00 0.00 48 1016.3
20171123183013 56 215 1.0 3.0 0.00 0.00 0.00 48 1016.2
20171123182510 55 133 1.0 2.0 0.00 0.00 0.00 49 1016.4
20171123182011 55 135 1.0 3.0 0.00 0.00 0.00 50 1016.4
20171123181511 55 134 1.0 3.0 0.00 0.00 0.00 50 1016.5
20171123181011 54 134 2.0 3.0 0.00 0.00 0.00 50 1016.6
20171123180510 54 135 2.0 3.0 0.00 0.00 0.00 50 1016.7
20171123180011 53 355 1.0 3.0 0.00 0.00 0.00 50 1016.7
20171123175509 53 355 1.0 3.0 0.00 0.00 0.00 52 1016.9
20171123175010 53 355 2.0 3.0 0.00 0.00 0.00 52 1017.0
20171123174516 52 355 2.0 3.0 0.00 0.00 0.00 53 1017.0
20171123174010 52 355 2.0 3.0 0.00 0.00 0.00 53 1017.2
20171123173509 52 5 2.0 3.0 0.00 0.00 0.00 53 1017.4
20171123173011 52 5 1.0 3.0 0.00 0.00 0.00 54 1017.4
20171123172509 51 5 2.0 3.0 0.00 0.00 0.00 54 1017.5
20171123172010 51 5 2.0 3.0 0.00 0.00 0.00 54 1017.5
20171123171510 51 16 2.0 3.0 0.00 0.00 0.00 56 1017.6
20171123171010 51 16 1.0 5.0 0.00 0.00 0.00 56 1017.6
20171123170509 50 14 3.0 5.0 0.00 0.00 0.00 57 1017.6
20171123170010 50 95 2.0 5.0 0.00 0.00 0.00 58 1017.6
20171123165509 49 40 3.0 5.0 0.00 0.00 0.00 58 1018.0
20171123165010 49 24 3.0 5.0 0.00 0.00 0.00 61 1018.1
20171123164510 48 19 2.0 5.0 0.00 0.00 0.00 62 1018.1
20171123164010 48 350 4.0 5.0 0.00 0.00 0.00 63 1018.2
20171123163509 47 15 2.0 3.0 0.00 0.00 0.00 65 1018.2
20171123163014 47 52 1.0 5.0 0.00 0.00 0.00 66 1018.4
20171123162509 46 34 2.0 5.0 0.00 0.00 0.00 67 1018.3
20171123162010 46 12 3.0 5.0 0.00 0.00 0.00 69 1018.3
20171123161510 45 11 2.0 3.0 0.00 0.00 0.00 71 1018.3
20171123160509 44 10 1.0 3.0 0.00 0.00 0.00 73 1018.4
20171123160014 43 6 3.0 3.0 0.00 0.00 0.00 74 1018.3
20171123155509 42 5 2.0 3.0 0.00 0.00 0.00 76 1018.3
20171123155010 41 78 2.0 3.0 0.00 0.00 0.00 77 1018.4
20171123154511 41 184 1.0 3.0 0.00 0.00 0.00 78 1018.4
20171123154010 40 185 2.0 3.0 0.00 0.00 0.00 79 1018.4
20171123153510 39 180 1.0 2.0 0.00 0.00 0.00 80 1018.5
20171123153012 38 180 1.0 3.0 0.00 0.00 0.00 80 1018.5
20171123152509 37 180 1.0 3.0 0.00 0.00 0.00 81 1018.6
20171123152011 36 138 1.0 3.0 0.00 0.00 0.00 80 1018.5
20171123151510 35 138 1.0 3.0 0.00 0.00 0.00 80 1018.7
20171123151010 34 138 0.0 2.0 0.00 0.00 0.00 80 1018.6
20171123150509 33 138 1.0 3.0 0.00 0.00 0.00 80 1018.7
20171123150012 33 138 1.0 3.0 0.00 0.00 0.00 79 1018.7
20171123145509 32 138 1.0 2.0 0.00 0.00 0.00 79 1018.7
20171123145010 31 138 0.0 0.0 0.00 0.00 0.00 78 1018.8
20171123144511 31 138 0.0 0.0 0.00 0.00 0.00 78 1018.8
20171123144010 30 138 0.0 0.0 0.00 0.00 0.00 78 1018.8
20171123143509 30 138 0.0 0.0 0.00 0.00 0.00 77 1018.9
20171123143012 29 138 0.0 0.0 0.00 0.00 0.00 77 1018.9
20171123142509 29 138 0.0 2.0 0.00 0.00 0.00 77 1018.9
20171123142011 28 138 0.0 2.0 0.00 0.00 0.00 76 1018.8
20171123141512 28 138 0.0 2.0 0.00 0.00 0.00 75 1018.8
20171123141011 28 138 0.0 2.0 0.00 0.00 0.00 75 1018.8
20171123140510 28 138 1.0 2.0 0.00 0.00 0.00 74 1018.8
20171123140012 28 138 1.0 2.0 0.00 0.00 0.00 74 1018.8
20171123135510 28 138 1.0 2.0 0.00 0.00 0.00 74 1018.8
20171123135011 27 138 1.0 2.0 0.00 0.00 0.00 73 1018.7
20171123134512 27 138 0.0 0.0 0.00 0.00 0.00 72 1018.8
20171123134011 27 138 0.0 0.0 0.00 0.00 0.00 72 1018.6
20171123133510 27 138 0.0 0.0 0.00 0.00 0.00 72 1018.7
20171123133012 27 138 0.0 1.0 0.00 0.00 0.00 72 1018.7
20171123132510 27 138 0.0 1.0 0.00 0.00 0.00 71 1018.7
20171123132011 27 138 0.0 0.0 0.00 0.00 0.00 71 1018.6
20171123131511 27 138 0.0 0.0 0.00 0.00 0.00 71 1018.5
20171123131011 27 138 0.0 0.0 0.00 0.00 0.00 71 1018.5
20171123130510 27 138 0.0 1.0 0.00 0.00 0.00 71 1018.4
20171123130012 27 138 0.0 1.0 0.00 0.00 0.00 71 1018.4
20171123125509 27 138 0.0 1.0 0.00 0.00 0.00 70 1018.3
20171123125010 27 138 0.0 0.0 0.00 0.00 0.00 70 1018.3
20171123124511 27 138 0.0 0.0 0.00 0.00 0.00 70 1018.3
20171123124010 27 138 0.0 0.0 0.00 0.00 0.00 70 1018.4
20171123123509 27 138 0.0 0.0 0.00 0.00 0.00 69 1018.4
20171123123011 27 138 0.0 0.0 0.00 0.00 0.00 69 1018.3
20171123122509 28 138 0.0 0.0 0.00 0.00 0.00 69 1018.3
20171123122010 28 138 0.0 0.0 0.00 0.00 0.00 69 1018.3
20171123121511 28 138 0.0 0.0 0.00 0.00 0.00 69 1018.2
20171123121010 28 138 0.0 0.0 0.00 0.00 0.00 69 1018.2
20171123120509 28 138 0.0 0.0 0.00 0.00 0.00 69 1018.1
20171123120011 28 138 0.0 0.0 0.00 0.00 0.00 68 1018.2
20171123115509 28 138 0.0 0.0 0.00 0.00 0.00 68 1018.0
20171123115010 28 138 0.0 0.0 0.00 0.00 0.00 68 1018.1
20171123114510 28 138 0.0 0.0 0.00 0.00 0.00 68 1018.2
20171123114010 28 138 0.0 0.0 0.00 0.00 0.00 68 1018.2
20171123113510 28 138 0.0 0.0 0.00 0.00 0.00 68 1018.2
20171123113012 28 138 0.0 0.0 0.00 0.00 0.00 67 1018.2
20171123112509 28 138 0.0 0.0 0.00 0.00 0.00 67 1018.2
20171123112011 28 138 0.0 0.0 0.00 0.00 0.00 67 1018.1
20171123111511 28 138 0.0 0.0 0.00 0.00 0.00 66 1018.0
20171123110509 28 138 0.0 0.0 0.00 0.00 0.00 66 1018.0
20171123110011 29 138 0.0 0.0 0.00 0.00 0.00 66 1018.0
20171123105509 29 138 0.0 0.0 0.00 0.00 0.00 66 1018.0
20171123105010 29 138 0.0 0.0 0.00 0.00 0.00 66 1018.1
20171123104511 29 138 0.0 2.0 0.00 0.00 0.00 65 1018.0
20171123104010 29 138 0.0 2.0 0.00 0.00 0.00 65 1017.9
20171123103509 29 138 0.0 2.0 0.00 0.00 0.00 65 1017.8
20171123103011 29 138 0.0 1.0 0.00 0.00 0.00 64 1017.8
20171123102509 29 138 0.0 1.0 0.00 0.00 0.00 64 1017.9
20171123102010 29 138 0.0 0.0 0.00 0.00 0.00 64 1017.9
20171123101513 29 138 0.0 0.0 0.00 0.00 0.00 64 1017.8
20171123101011 29 138 0.0 0.0 0.00 0.00 0.00 64 1017.8
20171123100509 29 138 0.0 0.0 0.00 0.00 0.00 64 1017.7
20171123100011 30 138 0.0 0.0 0.00 0.00 0.00 64 1017.6
20171123095510 30 138 0.0 0.0 0.00 0.00 0.00 64 1017.6
20171123095011 30 138 0.0 0.0 0.00 0.00 0.00 64 1017.6
20171123094512 30 138 0.0 0.0 0.00 0.00 0.00 64 1017.6
20171123094011 30 138 0.0 0.0 0.00 0.00 0.00 63 1017.6
20171123093509 30 138 0.0 1.0 0.00 0.00 0.00 63 1017.6
20171123093014 30 138 0.0 2.0 0.00 0.00 0.00 63 1017.6
20171123092510 30 138 0.0 2.0 0.00 0.00 0.00 63 1017.6
20171123092011 30 138 1.0 2.0 0.00 0.00 0.00 63 1017.6
20171123091011 31 138 1.0 2.0 0.00 0.00 0.00 63 1017.6
20171123090510 31 138 1.0 2.0 0.00 0.00 0.00 62 1017.8
20171123090012 31 138 1.0 3.0 0.00 0.00 0.00 62 1017.9
20171123085510 31 138 1.0 3.0 0.00 0.00 0.00 62 1017.7
20171123085011 31 138 2.0 3.0 0.00 0.00 0.00 62 1017.7
20171123084511 31 138 0.0 2.0 0.00 0.00 0.00 62 1017.7
20171123084011 31 138 0.0 2.0 0.00 0.00 0.00 62 1017.7
20171123083510 31 138 1.0 2.0 0.00 0.00 0.00 62 1017.7
20171123083013 32 138 1.0 2.0 0.00 0.00 0.00 61 1017.6
20171123082510 32 138 0.0 2.0 0.00 0.00 0.00 61 1017.6
20171123082011 32 138 0.0 2.0 0.00 0.00 0.00 61 1017.6
20171123081512 32 138 1.0 2.0 0.00 0.00 0.00 61 1017.6
20171123081011 32 138 0.0 3.0 0.00 0.00 0.00 61 1017.5
20171123080011 32 138 2.0 3.0 0.00 0.00 0.00 61 1017.3
20171123075510 32 143 1.0 3.0 0.00 0.00 0.00 60 1017.4
20171123075010 32 146 2.0 3.0 0.00 0.00 0.00 60 1017.4
20171123074510 32 154 2.0 3.0 0.00 0.00 0.00 60 1017.5
20171123074010 32 154 1.0 3.0 0.00 0.00 0.00 60 1017.5
20171123073509 32 153 3.0 3.0 0.00 0.00 0.00 59 1017.5
20171123073012 32 148 2.0 3.0 0.00 0.00 0.00 59 1017.5
20171123072509 32 148 2.0 3.0 0.00 0.00 0.00 59 1017.5
20171123072019 32 148 2.0 3.0 0.00 0.00 0.00 59 1017.6
20171123071511 32 157 1.0 3.0 0.00 0.00 0.00 58 1017.6
20171123071010 32 155 2.0 3.0 0.00 0.00 0.00 58 1017.6
20171123070509 32 151 2.0 3.0 0.00 0.00 0.00 58 1017.7
20171123070010 32 150 2.0 3.0 0.00 0.00 0.00 57 1017.8
20171123065509 32 142 2.0 3.0 0.00 0.00 0.00 57 1018.0
20171123065010 32 138 2.0 3.0 0.00 0.00 0.00 57 1018.0
20171123064511 32 148 1.0 3.0 0.00 0.00 0.00 56 1017.9
20171123064010 33 144 1.0 3.0 0.00 0.00 0.00 56 1018.1
20171123063509 33 141 2.0 3.0 0.00 0.00 0.00 56 1018.1
20171123063012 33 146 1.0 3.0 0.00 0.00 0.00 56 1018.1
20171123062509 33 152 1.0 3.0 0.00 0.00 0.00 55 1018.2
20171123062010 33 151 2.0 3.0 0.00 0.00 0.00 55 1018.2
20171123061511 33 148 1.0 3.0 0.00 0.00 0.00 55 1018.3
20171123061010 33 148 2.0 3.0 0.00 0.00 0.00 55 1018.4
20171123060509 34 146 2.0 3.0 0.00 0.00 0.00 55 1018.4
20171123060015 34 155 2.0 5.0 0.00 0.00 0.00 54 1018.5
20171123055515 34 137 2.0 5.0 0.00 0.00 0.00 54 1018.6
20171123055011 34 158 2.0 5.0 0.00 0.00 0.00 53 1018.7
20171123054512 34 153 1.0 5.0 0.00 0.00 0.00 53 1018.7
20171123054011 35 164 3.0 6.0 0.00 0.00 0.00 53 1018.6
20171123053510 35 165 3.0 6.0 0.00 0.00 0.00 52 1018.7
20171123053012 35 159 2.0 3.0 0.00 0.00 0.00 52 1018.7
20171123052510 35 158 1.0 6.0 0.00 0.00 0.00 52 1018.7
20171123052011 35 156 3.0 6.0 0.00 0.00 0.00 51 1018.6
20171123051512 36 140 4.0 6.0 0.00 0.00 0.00 50 1018.6
20171123051011 36 142 2.0 3.0 0.00 0.00 0.00 50 1018.7
20171123050510 36 144 2.0 3.0 0.00 0.00 0.00 50 1018.6
20171123050011 36 143 2.0 3.0 0.00 0.00 0.00 49 1018.8
20171123045510 37 150 1.0 6.0 0.00 0.00 0.00 49 1018.9
20171123045011 37 149 3.0 6.0 0.00 0.00 0.00 48 1018.9
20171123044511 37 160 3.0 6.0 0.00 0.00 0.00 48 1019.0
20171123044011 37 157 3.0 6.0 0.00 0.00 0.00 48 1019.1
20171123043510 37 157 3.0 5.0 0.00 0.00 0.00 48 1019.2
20171123043013 37 155 3.0 7.0 0.00 0.00 0.00 48 1019.3
20171123042510 37 164 3.0 8.0 0.00 0.00 0.00 47 1019.2
20171123042010 38 164 5.0 8.0 0.00 0.00 0.00 47 1019.2
20171123041511 38 163 3.0 7.0 0.00 0.00 0.00 47 1019.4
20171123041010 38 161 3.0 7.0 0.00 0.00 0.00 47 1019.5
20171123040509 38 164 3.0 7.0 0.00 0.00 0.00 46 1019.5
20171123040011 38 172 4.0 6.0 0.00 0.00 0.00 46 1019.8
20171123035509 38 168 3.0 9.0 0.00 0.00 0.00 46 1019.9
20171123035010 38 154 4.0 9.0 0.00 0.00 0.00 46 1019.8
20171123034510 38 168 4.0 9.0 0.00 0.00 0.00 46 1019.9
20171123034010 38 160 5.0 9.0 0.00 0.00 0.00 46 1019.9
20171123033509 38 170 3.0 9.0 0.00 0.00 0.00 46 1019.7
20171123033025 38 184 4.0 9.0 0.00 0.00 0.00 45 1019.7
20171123032510 38 180 3.0 7.0 0.00 0.00 0.00 45 1019.8
20171123032010 38 165 4.0 10.0 0.00 0.00 0.00 45 1019.9
20171123031509 38 169 5.0 10.0 0.00 0.00 0.00 45 1019.8
20171123031010 38 151 3.0 9.0 0.00 0.00 0.00 45 1019.8
20171123030509 38 171 4.0 9.0 0.00 0.00 0.00 45 1019.9
20171123030011 38 186 5.0 7.0 0.00 0.00 0.00 44 1020.2
20171123025509 39 189 4.0 9.0 0.00 0.00 0.00 44 1020.2
20171123025010 39 162 5.0 9.0 0.00 0.00 0.00 44 1020.3
20171123024512 39 175 3.0 10.0 0.00 0.00 0.00 44 1020.5
20171123024010 39 158 5.0 12.0 0.00 0.00 0.00 44 1020.7
20171123023509 39 149 5.0 12.0 0.00 0.00 0.00 43 1020.7
20171123023012 39 194 5.0 12.0 0.00 0.00 0.00 43 1020.7
20171123022509 39 163 5.0 12.0 0.00 0.00 0.00 43 1020.5
20171123022010 39 179 7.0 13.0 0.00 0.00 0.00 43 1020.6
20171123021511 39 176 5.0 13.0 0.00 0.00 0.00 43 1020.6
20171123021010 39 198 7.0 12.0 0.00 0.00 0.00 43 1020.8
20171123020509 39 184 6.0 12.0 0.00 0.00 0.00 44 1020.8
20171123020010 38 156 5.0 12.0 0.00 0.00 0.00 44 1021.3
20171123015509 38 196 6.0 13.0 0.00 0.00 0.00 44 1021.4
20171123015010 38 186 6.0 13.0 0.00 0.00 0.00 44 1021.5
20171123014513 38 185 5.0 10.0 0.00 0.00 0.00 45 1021.6
20171123014010 38 165 3.0 12.0 0.00 0.00 0.00 45 1021.9
20171123013509 38 164 7.0 12.0 0.00 0.00 0.00 45 1021.8
20171123013013 38 175 3.0 7.0 0.00 0.00 0.00 45 1022.1
20171123012509 38 167 5.0 7.0 0.00 0.00 0.00 45 1022.1
20171123012010 38 157 3.0 7.0 0.00 0.00 0.00 44 1022.2
20171123011511 38 165 3.0 7.0 0.00 0.00 0.00 44 1022.2
20171123011010 38 163 3.0 7.0 0.00 0.00 0.00 44 1022.1
20171123010510 38 156 5.0 6.0 0.00 0.00 0.00 44 1022.4
20171123010012 38 170 3.0 7.0 0.00 0.00 0.00 44 1022.4
20171123005510 38 162 4.0 7.0 0.00 0.00 0.00 44 1022.3
20171123005011 38 167 4.0 7.0 0.00 0.00 0.00 44 1022.5
20171123004512 38 164 3.0 7.0 0.00 0.00 0.00 44 1022.6
20171123004011 38 161 3.0 6.0 0.00 0.00 0.00 44 1022.6
20171123003510 38 159 3.0 6.0 0.00 0.00 0.00 44 1022.7
20171123003012 38 156 2.0 5.0 0.00 0.00 0.00 44 1022.7
20171123002510 38 163 3.0 6.0 0.00 0.00 0.00 43 1022.8
20171123002011 38 169 3.0 7.0 0.00 0.00 0.00 43 1022.8
20171123001511 38 173 4.0 7.0 0.00 0.00 0.00 43 1022.7
20171123001011 38 171 3.0 6.0 0.00 0.00 0.00 43 1022.7
20171123000514 38 181 3.0 6.0 0.00 0.00 0.00 43 1022.7
20171123000011 38 170 3.0 5.0 0.00 0.00 0.00 42 1022.6
20171122235510 38 173 3.0 5.0 0.00 0.00 0.00 42 1022.7
20171122235011 38 166 3.0 5.0 0.00 0.00 0.00 41 1023.1
20171122234511 38 162 2.0 3.0 0.00 0.00 0.00 41 1023.2